Frederick, MD

5:17 PM EST on February 19, 2017 (GMT -0500)
Frederick Municipal

Weather History for KFDK - February, 2014

Change the Weather History Date:

Tuesday, February 11, 2014

  Actual Average (KHGR) Record (KHGR)
Temperature  
Mean Temperature 19 °F -  
Max Temperature 28 °F 40 °F 68 °F (2009)
Min Temperature 10 °F 24 °F 9 °F (2008)
Degree Days  
Heating Degree Days 46    
Moisture  
Dew Point 13 °F    
Average Humidity 81    
Maximum Humidity 100    
Minimum Humidity 47    
Precipitation  
Precipitation 0.00 in - - ()
Sea Level Pressure  
Sea Level Pressure 30.44 in    
Wind  
Wind Speed 1 mph (NNE)    
Max Wind Speed 8 mph    
Max Gust Speed -    
Visibility 10 miles    
Events      
Averages and records for this station are not official NWS values.
T = Trace of Precipitation, MM = Missing Value Source: NWS Daily Summary

Daily Weather History Graph

Daily Weather History Graph

Search for Another Location

Airport or City:

Trip Planner

Search our weather history database for the weather conditions in past years. The results will help you decide how hot, cold, wet, or windy it might be!

Date:

Astronomy

Feb. 11, 2014 Rise Set
Actual Time 7:06 AM EST 5:41 PM EST
Civil Twilight 6:38 AM EST 6:09 PM EST
Nautical Twilight 6:06 AM EST 6:41 PM EST
Astronomical Twilight 5:35 AM EST 7:12 PM EST
Moon 3:00 PM EST (2/11) 4:41 AM EST (2/11)
Length of Visible Light 11h 30m
Length of Day
10h 35m
Waxing Gibbous, 90% of the Moon is Illuminated
Feb 11
Waxing Gibbous
Feb 14
Full
Feb 22
Last Quarter
Mar 1
New
Mar 8
First Quarter

Hourly Weather History & Observations

Time (EST) Temp. Windchill Dew Point Humidity Pressure Visibility Wind Dir Wind Speed Gust Speed Precip Events Conditions
12:10 AM 21.2 °F - 12.2 °F 68% 30.37 in 10.0 mi Calm Calm - N/A   Clear
12:30 AM 17.6 °F - 14.0 °F 86% 30.37 in 10.0 mi Calm Calm - N/A   Clear
12:50 AM 17.6 °F - 12.2 °F 79% 30.37 in 10.0 mi Calm Calm - N/A   Clear
1:10 AM 17.6 °F - 14.0 °F 86% 30.37 in 10.0 mi Calm Calm - N/A   Clear
1:30 AM 15.8 °F - 14.0 °F 93% 30.37 in 10.0 mi Calm Calm - N/A   Clear
1:50 AM 14.0 °F - 14.0 °F 100% 30.37 in 10.0 mi Calm Calm - N/A   Clear
2:10 AM 14.0 °F - 12.2 °F 93% 30.37 in 10.0 mi Calm Calm - N/A   Clear
2:30 AM 14.0 °F - 12.2 °F 93% 30.38 in 10.0 mi Calm Calm - N/A   Clear
2:50 AM 14.0 °F - 12.2 °F 93% 30.38 in 10.0 mi Calm Calm - N/A   Clear
3:10 AM 14.0 °F - 12.2 °F 93% 30.39 in 10.0 mi Calm Calm - N/A   Scattered Clouds
3:30 AM 14.0 °F - 12.2 °F 93% 30.38 in 10.0 mi Calm Calm - N/A   Scattered Clouds
3:50 AM 14.0 °F - 12.2 °F 93% 30.39 in 10.0 mi Calm Calm - N/A   Clear
4:10 AM 12.2 °F - 12.2 °F 100% 30.40 in 10.0 mi Calm Calm - N/A   Mostly Cloudy
4:30 AM 14.0 °F - 12.2 °F 93% 30.40 in 10.0 mi Calm Calm - N/A   Scattered Clouds
4:50 AM 12.2 °F - 12.2 °F 100% 30.41 in 10.0 mi Calm Calm - N/A   Clear
5:10 AM 12.2 °F - 12.2 °F 100% 30.41 in 10.0 mi Calm Calm - N/A   Clear
5:30 AM 12.2 °F - 12.2 °F 100% 30.41 in 7.0 mi Calm Calm - N/A   Clear
5:35 AM 12.2 °F - 12.2 °F 100% 30.41 in 7.0 mi Calm Calm - N/A   Clear
6:50 AM 10.4 °F - 10.4 °F 100% 30.43 in 10.0 mi N/A N/A - N/A   Clear
7:50 AM 12.2 °F - 12.2 °F 100% 30.46 in 10.0 mi Calm Calm - N/A   Clear
8:50 AM 19.4 °F 14.3 °F 14.0 °F 80% 30.47 in 10.0 mi Variable 3.5 mph - N/A   Clear
9:47 AM 23.0 °F 15.8 °F 15.8 °F 74% 30.48 in 10.0 mi North 5.8 mph - N/A   Clear
10:50 AM 24.8 °F 16.1 °F 12.2 °F 59% 30.46 in 10.0 mi NE 8.1 mph - N/A   Clear
11:47 AM 26.6 °F 20.0 °F 12.2 °F 55% 30.45 in 10.0 mi NNE 5.8 mph - N/A   Clear
12:47 PM 28.4 °F - 12.2 °F 51% 30.43 in 10.0 mi Calm Calm - N/A   Clear
1:45 PM 28.4 °F 22.2 °F 12.2 °F 51% 30.41 in 10.0 mi ENE 5.8 mph - N/A   Clear
2:45 PM 28.4 °F 24.6 °F 12.2 °F 51% 30.41 in 10.0 mi East 3.5 mph - N/A   Clear
3:45 PM 28.4 °F 22.2 °F 12.2 °F 51% 30.41 in 10.0 mi North 5.8 mph - N/A   Clear
4:45 PM 28.4 °F 24.6 °F 10.4 °F 47% 30.42 in 10.0 mi Variable 3.5 mph - N/A   Clear
6:47 PM 21.2 °F 16.4 °F 12.2 °F 68% 30.46 in 10.0 mi Variable 3.5 mph - N/A   Clear
7:45 PM 21.2 °F - 15.8 °F 80% 30.47 in 10.0 mi Calm Calm - N/A   Clear
7:55 PM 21.2 °F - 15.8 °F 80% 30.48 in 10.0 mi Calm Calm - N/A   Clear
8:15 PM 21.2 °F 16.4 °F 14.0 °F 74% 30.48 in 10.0 mi North 3.5 mph - N/A   Clear
8:35 PM 21.2 °F 16.4 °F 14.0 °F 74% 30.48 in 10.0 mi North 3.5 mph - N/A   Clear
8:55 PM 21.2 °F 16.4 °F 14.0 °F 74% 30.49 in 10.0 mi North 3.5 mph - N/A   Clear
9:15 PM 19.4 °F - 14.0 °F 80% 30.50 in 10.0 mi Calm Calm - N/A   Clear
9:35 PM 19.4 °F - 12.2 °F 74% 30.50 in 10.0 mi Calm Calm - N/A   Clear
9:55 PM 19.4 °F - 14.0 °F 80% 30.50 in 10.0 mi Calm Calm - N/A   Clear
10:15 PM 19.4 °F - 12.2 °F 74% 30.50 in 10.0 mi Calm Calm - N/A   Clear
10:35 PM 17.6 °F - 12.2 °F 79% 30.51 in 10.0 mi Calm Calm - N/A   Clear
10:55 PM 19.4 °F - 12.2 °F 74% 30.51 in 10.0 mi Calm Calm - N/A   Clear
11:15 PM 15.8 °F - 12.2 °F 86% 30.51 in 10.0 mi Calm Calm - N/A   Clear
11:35 PM 15.8 °F - 12.2 °F 86% 30.51 in 10.0 mi Calm Calm - N/A   Clear
11:55 PM 14.0 °F - 14.0 °F 100% 30.51 in 10.0 mi Calm Calm - N/A   Clear